EW8576 Weather Reports


Display with metric or nautical units.
time (UTC)temp
F
wind
direction
speed
MPH
gust
MPH
rain 1hr
in
rain 24hr
in
rain mn
in
humidity
%
barometer
mb
20260505064119 54 213 0.0 0.0 0.00 0.00 0.00 31 1006.7
20260505063403 54 213 0.0 0.0 0.00 0.00 0.00 27 1006.7
20260505063359 54 213 0.0 0.0 0.00 0.00 0.00 27 1006.7
20260505063319 56 213 0.0 0.0 0.00 0.00 0.00 42 1006.9
20260505063247 54 213 0.0 0.0 0.00 0.00 0.00 28 1006.6
20260505063239 55 213 0.0 0.0 0.00 0.00 0.00 31 1006.7
20260505062653 55 213 0.0 0.0 0.00 0.00 0.00 33 1006.8
20260505062649 55 213 0.0 1.0 0.00 0.00 0.00 36 1006.9
20260505062645 56 213 0.0 1.0 0.00 0.00 0.00 39 1006.9
20260505062641 55 213 0.0 0.0 0.00 0.00 0.00 35 1006.7
20260505062523 55 213 0.0 0.0 0.00 0.00 0.00 30 1006.7
20260505062309 55 213 0.0 0.0 0.00 0.00 0.00 32 1006.8
20260505053815 56 213 0.0 0.0 0.00 0.00 0.00 46 1006.9
20260505053355 59 209 0.0 4.0 0.00 0.00 0.00 50 1007.0
20260505053309 57 213 0.0 0.0 0.00 0.00 0.00 47 1007.0
20260505053110 57 213 0.0 0.0 0.00 0.00 0.00 48 1007.0
20260505053017 57 213 0.0 0.0 0.00 0.00 0.00 48 1007.1
20260505051817 58 212 0.0 2.0 0.00 0.00 0.00 50 1006.9
20260505051812 58 213 0.0 0.0 0.00 0.00 0.00 49 1007.1
20260505051702 58 235 0.0 4.0 0.00 0.00 0.00 50 1006.9
20260505051658 58 236 0.0 4.0 0.00 0.00 0.00 50 1006.9
20260505051654 58 213 0.0 0.0 0.00 0.00 0.00 49 1007.0
20260505051649 58 213 0.0 0.0 0.00 0.00 0.00 49 1007.0
20260505051435 58 212 0.0 0.0 0.00 0.00 0.00 50 1007.0
20260505041637 59 224 0.0 0.0 0.00 0.00 0.00 50 1007.0
20260505041131 59 247 0.0 2.0 0.00 0.00 0.00 50 1007.0
20260505040856 59 220 0.0 2.0 0.00 0.00 0.00 50 1007.0
20260505040119 59 237 0.0 4.0 0.00 0.00 0.00 50 1007.0
20260505035612 60 236 0.0 5.0 0.00 0.00 0.00 50 1007.0
20260505035107 60 218 0.0 1.0 0.00 0.00 0.00 51 1007.0
20260505034819 60 215 0.0 1.0 0.00 0.00 0.00 50 1007.0
20260505034552 60 257 0.0 0.0 0.00 0.00 0.00 51 1006.9
20260505033550 60 258 0.0 4.0 0.00 0.00 0.00 50 1006.9
20260505033043 60 269 0.0 7.0 0.00 0.00 0.00 50 1007.0
20260505032032 60 248 0.0 6.0 0.00 0.00 0.00 51 1007.0
20260505031525 60 254 0.0 0.0 0.00 0.00 0.00 51 1007.0
20260505031019 60 257 0.0 2.0 0.00 0.00 0.00 51 1007.0
20260505030514 60 258 0.0 4.0 0.00 0.00 0.00 51 1007.0
20260505030007 60 259 0.0 4.0 0.00 0.00 0.00 50 1007.0
20260505025501 61 264 0.0 1.0 0.00 0.00 0.00 50 1007.1
20260505024955 61 265 0.0 4.0 0.00 0.00 0.00 50 1007.0
20260505024449 61 267 0.0 4.0 0.00 0.00 0.00 50 1007.1
20260505023943 61 231 0.0 5.0 0.00 0.00 0.00 50 1007.1
20260505023437 60 237 0.0 5.0 0.00 0.00 0.00 50 1007.1
20260505023225 60 232 0.0 0.0 0.00 0.00 0.00 51 1007.1
20260505022425 60 232 0.0 0.0 0.00 0.00 0.00 51 1007.1
20260505021919 60 232 0.0 2.0 0.00 0.00 0.00 50 1007.1
20260505021723 60 232 0.0 2.0 0.00 0.00 0.00 51 1007.1
20260505021618 60 226 0.0 1.0 0.00 0.00 0.00 51 1007.1
20260505020402 60 224 0.0 2.0 0.00 0.00 0.00 51 1007.1
20260505015855 60 224 0.0 2.0 0.00 0.00 0.00 51 1007.0
20260505015348 61 224 0.0 1.0 0.00 0.00 0.00 51 1007.0
20260505014842 61 226 0.0 0.0 0.00 0.00 0.00 50 1007.0
20260505014337 61 226 0.0 0.0 0.00 0.00 0.00 51 1006.9
20260505013831 61 226 0.0 0.0 0.00 0.00 0.00 50 1006.8
20260505013325 61 228 0.0 0.0 0.00 0.00 0.00 50 1006.9
20260505013040 62 228 0.0 1.0 0.00 0.00 0.00 50 1006.8
20260505012313 62 228 0.0 2.0 0.00 0.00 0.00 50 1006.6
20260505011808 63 228 0.0 2.0 0.00 0.00 0.00 48 1006.5
20260505011302 63 228 0.0 1.0 0.00 0.00 0.00 49 1006.4
20260505010754 63 227 0.0 1.0 0.00 0.00 0.00 48 1006.4
20260505010249 64 227 0.0 2.0 0.00 0.00 0.00 47 1006.4
20260505005743 64 225 0.0 2.0 0.00 0.00 0.00 46 1006.3
20260505005237 65 159 0.0 1.0 0.00 0.00 0.00 46 1006.2
20260505004731 65 159 0.0 1.0 0.00 0.00 0.00 44 1006.1
20260505004224 65 237 0.0 1.0 0.00 0.00 0.00 45 1006.1
20260505003720 66 248 0.0 1.0 0.00 0.00 0.00 44 1006.0
20260505003214 66 200 0.0 5.0 0.00 0.00 0.00 43 1005.9
20260505002707 66 231 0.0 5.0 0.00 0.00 0.00 43 1005.8
20260505002224 66 212 0.0 5.0 0.00 0.00 0.00 43 1005.8
20260505001701 66 222 0.0 5.0 0.00 0.00 0.00 43 1005.6
20260505001148 66 209 0.0 4.0 0.00 0.00 0.00 42 1005.6
20260505000901 67 219 0.0 4.0 0.00 0.00 0.00 42 1005.5
20260505000137 67 219 0.0 4.0 0.00 0.00 0.00 42 1005.4
20260504235631 67 217 0.0 4.0 0.00 0.00 0.00 42 1005.3
20260504235344 67 238 0.0 1.0 0.00 0.00 0.00 43 1005.2
20260504234619 68 237 0.0 1.0 0.00 0.00 0.00 43 1005.2
20260504234113 68 239 0.0 4.0 0.00 0.00 0.00 40 1005.1
20260504233613 68 207 0.0 4.0 0.00 0.00 0.00 41 1005.0
20260504233113 69 209 0.0 4.0 0.00 0.00 0.00 43 1005.0
20260504232614 69 245 0.0 0.0 0.00 0.00 0.00 42 1005.0
20260504232111 70 224 0.0 0.0 0.00 0.00 0.00 40 1004.9
20260504231833 71 240 0.0 4.0 0.00 0.00 0.00 38 1004.9
20260504231109 71 243 0.0 4.0 0.00 0.00 0.00 36 1004.8
20260504230628 71 242 1.0 11.0 0.00 0.00 0.00 37 1004.8
20260504230327 71 208 1.0 11.0 0.00 0.00 0.00 36 1004.7
20260504225605 71 254 0.0 7.0 0.00 0.00 0.00 37 1004.6
20260504225103 72 239 0.0 7.0 0.00 0.00 0.00 38 1004.5
20260504224603 72 244 0.0 8.0 0.00 0.00 0.00 38 1004.4
20260504224101 72 235 0.0 8.0 0.00 0.00 0.00 35 1004.4
20260504223559 72 227 0.0 7.0 0.00 0.00 0.00 36 1004.4
20260504223059 72 246 0.0 5.0 0.00 0.00 0.00 36 1004.4
20260504222640 71 195 0.0 6.0 0.00 0.00 0.00 35 1004.5
20260504222636 71 243 0.0 1.0 0.00 0.00 0.00 36 1004.4
20260504222632 72 256 0.0 5.0 0.00 0.00 0.00 36 1004.4
20260504221322 72 216 1.0 11.0 0.00 0.00 0.00 35 1004.5
20260504220831 72 250 1.0 14.0 0.00 0.00 0.00 34 1004.6
20260504220652 72 246 1.0 14.0 0.00 0.00 0.00 35 1004.6
20260504220132 72 246 1.0 14.0 0.00 0.00 0.00 35 1004.6
20260504215626 72 243 1.0 7.0 0.00 0.00 0.00 35 1004.6
20260504215054 73 220 1.0 6.0 0.00 0.00 0.00 35 1004.7
20260504214830 72 192 1.0 6.0 0.00 0.00 0.00 36 1004.7
20260504214250 72 276 2.0 15.0 0.00 0.00 0.00 33 1004.8
20260504214128 71 248 0.0 5.0 0.00 0.00 0.00 36 1004.8
20260504213926 72 264 2.0 14.0 0.00 0.00 0.00 34 1004.8
20260504213853 71 234 1.0 14.0 0.00 0.00 0.00 35 1004.8
20260504212328 72 261 1.0 15.0 0.00 0.00 0.00 34 1004.9
20260504211819 72 261 1.0 15.0 0.00 0.00 0.00 32 1004.8
20260504211047 73 245 0.0 6.0 0.00 0.00 0.00 33 1004.8
20260504210809 73 288 0.0 6.0 0.00 0.00 0.00 34 1004.9
20260504210311 73 258 0.0 10.0 0.00 0.00 0.00 32 1004.9
20260504205536 72 254 1.0 10.0 0.00 0.00 0.00 34 1005.0
20260504205313 73 261 1.0 8.0 0.00 0.00 0.00 32 1005.0
20260504204534 73 207 1.0 11.0 0.00 0.00 0.00 33 1005.0
20260504204035 73 215 1.0 11.0 0.00 0.00 0.00 32 1005.0
20260504203831 73 268 0.0 6.0 0.00 0.00 0.00 32 1005.0
20260504203035 72 261 1.0 7.0 0.00 0.00 0.00 34 1005.1
20260504202540 72 226 0.0 11.0 0.00 0.00 0.00 33 1005.1
20260504202536 72 229 1.0 7.0 0.00 0.00 0.00 33 1005.0
20260504202043 72 267 1.0 11.0 0.00 0.00 0.00 33 1005.2
20260504201304 72 244 1.0 12.0 0.00 0.00 0.00 33 1005.1
20260504200535 72 218 1.0 12.0 0.00 0.00 0.00 34 1005.2
20260504200340 72 237 1.0 10.0 0.00 0.00 0.00 32 1005.3
20260504200309 72 240 1.0 10.0 0.00 0.00 0.00 34 1005.2
20260504195035 73 272 1.0 11.0 0.00 0.00 0.00 31 1005.4
20260504194536 73 209 3.0 14.0 0.00 0.00 0.00 33 1005.4
20260504194309 72 270 3.0 15.0 0.00 0.00 0.00 32 1005.5
20260504193535 72 287 2.0 15.0 0.00 0.00 0.00 31 1005.5
20260504193035 71 209 2.0 14.0 0.00 0.00 0.00 34 1005.5
20260504192535 71 192 1.0 14.0 0.00 0.00 0.00 34 1005.5
20260504192035 70 207 1.0 10.0 0.00 0.00 0.00 34 1005.5
20260504191544 70 214 2.0 15.0 0.00 0.00 0.00 35 1005.7
20260504191034 70 219 1.0 15.0 0.00 0.00 0.00 32 1005.7
20260504190756 71 286 1.0 11.0 0.00 0.00 0.00 33 1005.6
20260504190035 71 263 2.0 15.0 0.00 0.00 0.00 32 1005.9
20260504185535 71 192 1.0 15.0 0.00 0.00 0.00 33 1005.9
20260504185151 70 250 1.0 15.0 0.00 0.00 0.00 33 1006.2
20260504185037 71 236 1.0 13.0 0.00 0.00 0.00 33 1005.9
20260504184902 70 261 2.0 15.0 0.00 0.00 0.00 34 1006.0
20260504184828 71 175 1.0 13.0 0.00 0.00 0.00 34 1005.9
20260504184805 71 220 1.0 9.0 0.00 0.00 0.00 34 1006.0
20260504183112 69 252 0.0 7.0 0.00 0.00 0.00 37 1006.2
20260504182026 69 295 2.0 15.0 0.00 0.00 0.00 35 1006.3
20260504182009 69 246 2.0 16.0 0.00 0.00 0.00 34 1006.4
20260504181519 69 209 3.0 16.0 0.00 0.00 0.00 33 1006.4
20260504181506 69 254 2.0 12.0 0.00 0.00 0.00 35 1006.4
20260504180024 69 247 1.0 12.0 0.00 0.00 0.00 34 1006.4
20260504175515 69 233 1.0 12.0 0.00 0.00 0.00 36 1006.4
20260504175013 69 251 2.0 18.0 0.00 0.00 0.00 35 1006.6
20260504174513 68 230 2.0 18.0 0.00 0.00 0.00 33 1006.8
20260504174010 69 236 1.0 10.0 0.00 0.00 0.00 35 1006.8
20260504173508 68 247 2.0 18.0 0.00 0.00 0.00 35 1006.7
20260504173008 68 252 2.0 18.0 0.00 0.00 0.00 36 1006.8
20260504172507 67 251 1.0 14.0 0.00 0.00 0.00 36 1006.8
20260504172006 67 288 1.0 12.0 0.00 0.00 0.00 36 1006.9
20260504171507 67 160 1.0 13.0 0.00 0.00 0.00 36 1007.0
20260504171005 67 139 2.0 15.0 0.00 0.00 0.00 36 1007.0
20260504170500 67 211 2.0 15.0 0.00 0.00 0.00 36 1007.2
20260504160136 65 227 1.0 13.0 0.00 0.00 0.00 39 1007.8
20260504150903 65 243 2.0 15.0 0.00 0.00 0.00 39 1008.4
20260504150403 64 245 1.0 14.0 0.00 0.00 0.00 38 1008.5
20260504141305 62 232 2.0 16.0 0.00 0.00 0.00 40 1009.1
20260504140800 61 290 2.0 11.0 0.00 0.00 0.00 42 1009.2
20260504140254 60 269 2.0 20.0 0.00 0.00 0.00 43 1009.2
20260504130143 54 277 1.0 10.0 0.00 0.00 0.00 45 1009.9
20260504110432 38 0 0.0 0.0 0.00 0.00 0.00 1 1010.3
20260504081851 38 292 0.0 0.0 0.00 0.00 0.00 1 1009.8
20260504081351 38 292 0.0 0.0 0.00 0.00 0.00 1 1009.8
20260504080850 38 292 0.0 0.0 0.00 0.00 0.00 1 1009.8
20260504080614 38 292 0.0 0.0 0.00 0.00 0.00 1 1009.9
20260504070341 37 292 0.0 0.0 0.00 0.00 0.00 1 1009.6